Location: Bessat
(45.8735°N, 1.9924°E)
Time: 23:03:36
(UTC+00:00)

USA 306 - Pass Details

Date: 11 May 2021
Orbit: 565 x 575 km, 54.0° (Epoch: 11 May)

Event Time Altitude Azimuth Distance (km) Brightness Sun altitude
Rises 22:20:30 0° 299° (WNW) 2,774 7.2 -23.0°
Reaches altitude 10° 22:22:51 10° 292° (WNW) 1,875 6.1 -23.1°
Enters shadow 22:26:03 35° 249° (WSW) 939 3.9 -23.3°
